SWR2267 LDDU-LSZH

Flight info

Callsign SWR2267
Flight time 1h 32m
Altitude 38000
Route AMUGO DCT UVODI DCT ROTAR DCT UNTAD DCT RESIA DCT SOPER Z50 KELIP
Aircraft A320/M-SDE2E3FGIRWXY/L

Departure

Time 2026-04-30 08:12
Airport Dubrovnik Ruđer Bošković Airport (LDDU)

Arrival

Time 2026-04-30 09:45
Airport Zürich Airport (LSZH)
Time Latitude Longitude Altitude Speed Heading
2026-04-30 07:54 42.56021 18.26463 534 ft 0 kts 208°
2026-04-30 08:05 42.56034 18.26473 534 ft 4 kts 208°
2026-04-30 08:05 42.56054 18.26487 534 ft 4 kts 211°
2026-04-30 08:06 42.56069 18.26509 534 ft 4 kts 269°
2026-04-30 08:06 42.56062 18.26539 534 ft 4 kts 298°
2026-04-30 08:06 42.56058 18.26551 534 ft 0 kts 298°
2026-04-30 08:08 42.56059 18.26547 534 ft 2 kts 298°
2026-04-30 08:08 42.56077 18.26502 534 ft 10 kts 298°
2026-04-30 08:09 42.56118 18.26398 534 ft 13 kts 298°
2026-04-30 08:09 42.56162 18.26288 534 ft 15 kts 298°
2026-04-30 08:09 42.56218 18.26148 534 ft 19 kts 297°
2026-04-30 08:09 42.56288 18.25971 534 ft 23 kts 298°
2026-04-30 08:10 42.56367 18.25774 534 ft 25 kts 298°
2026-04-30 08:10 42.56452 18.25562 534 ft 26 kts 300°
2026-04-30 08:10 42.56541 18.25336 534 ft 28 kts 298°
2026-04-30 08:10 42.56636 18.25100 534 ft 29 kts 297°
2026-04-30 08:11 42.56729 18.24860 534 ft 26 kts 298°
2026-04-30 08:11 42.56799 18.24696 534 ft 14 kts 315°
2026-04-30 08:11 42.56895 18.24686 533 ft 15 kts 26°
2026-04-30 08:11 42.56934 18.24805 533 ft 16 kts 101°
2026-04-30 08:12 42.56860 18.25003 532 ft 48 kts 118°
2026-04-30 08:12 42.56582 18.25705 535 ft 116 kts 118°
2026-04-30 08:12 42.56121 18.26907 560 ft 164 kts 111°
2026-04-30 08:12 42.55587 18.28239 1287 ft 156 kts 112°
2026-04-30 08:13 42.55062 18.29529 2048 ft 156 kts 112°
2026-04-30 08:13 42.54527 18.30895 2499 ft 176 kts 112°
2026-04-30 08:13 42.53684 18.32235 2914 ft 204 kts 143°
2026-04-30 08:13 42.52272 18.32903 3426 ft 225 kts 173°
2026-04-30 08:14 42.50704 18.32607 4295 ft 230 kts 203°
2026-04-30 08:14 42.49299 18.31546 5237 ft 230 kts 207°
2026-04-30 08:14 42.47818 18.30774 6180 ft 229 kts 195°
2026-04-30 08:14 42.46296 18.30211 7040 ft 230 kts 195°
2026-04-30 08:15 42.44717 18.29663 7872 ft 233 kts 197°
2026-04-30 08:15 42.43135 18.29134 8708 ft 236 kts 198°
2026-04-30 08:15 42.41538 18.28563 9550 ft 238 kts 206°
2026-04-30 08:15 42.40205 18.27309 10322 ft 235 kts 234°
2026-04-30 08:16 42.39455 18.25356 10913 ft 242 kts 260°
2026-04-30 08:16 42.39501 18.23040 11252 ft 263 kts 286°
2026-04-30 08:16 42.40067 18.20619 11827 ft 274 kts 288°
2026-04-30 08:16 42.40655 18.18143 12687 ft 277 kts 288°
2026-04-30 08:17 42.41246 18.15647 13582 ft 279 kts 288°
2026-04-30 08:17 42.41836 18.13139 14411 ft 280 kts 287°
2026-04-30 08:17 42.42434 18.10583 14893 ft 295 kts 287°
2026-04-30 08:17 42.43075 18.07827 15058 ft 318 kts 287°
2026-04-30 08:18 42.43752 18.04917 15517 ft 328 kts 287°
2026-04-30 08:18 42.44442 18.01949 16210 ft 332 kts 286°
2026-04-30 08:18 42.45135 17.98950 16992 ft 334 kts 286°
2026-04-30 08:18 42.45830 17.95934 17807 ft 336 kts 285°
2026-04-30 08:19 42.46528 17.92897 18571 ft 338 kts 285°
2026-04-30 08:19 42.47220 17.89885 19199 ft 341 kts 285°
2026-04-30 08:19 42.47931 17.86805 19824 ft 343 kts 285°
2026-04-30 08:19 42.48647 17.83706 20459 ft 346 kts 285°
2026-04-30 08:20 42.49369 17.80577 21067 ft 349 kts 285°
2026-04-30 08:20 42.50093 17.77420 21685 ft 353 kts 285°
2026-04-30 08:20 42.50821 17.74231 22297 ft 356 kts 285°
2026-04-30 08:20 42.51554 17.71013 22898 ft 359 kts 285°
2026-04-30 08:21 42.52293 17.67769 23485 ft 361 kts 285°
2026-04-30 08:21 42.53035 17.64502 23996 ft 364 kts 285°
2026-04-30 08:21 42.53785 17.61211 24499 ft 366 kts 286°
2026-04-30 08:21 42.54778 17.58017 25004 ft 371 kts 296°
2026-04-30 08:22 42.56230 17.55095 25469 ft 376 kts 303°
2026-04-30 08:22 42.57807 17.52258 25944 ft 378 kts 303°
2026-04-30 08:22 42.59397 17.49391 26415 ft 379 kts 302°
2026-04-30 08:22 42.60980 17.46521 26878 ft 381 kts 302°
2026-04-30 08:23 42.62567 17.43639 27327 ft 382 kts 302°
2026-04-30 08:23 42.64159 17.40739 27769 ft 384 kts 302°
2026-04-30 08:23 42.65758 17.37827 28240 ft 385 kts 302°
2026-04-30 08:23 42.67365 17.34904 28698 ft 386 kts 302°
2026-04-30 08:24 42.68979 17.31969 29145 ft 388 kts 302°
2026-04-30 08:24 42.70593 17.29024 29594 ft 390 kts 302°
2026-04-30 08:24 42.72213 17.26066 30090 ft 390 kts 302°
2026-04-30 08:24 42.73840 17.23101 30461 ft 391 kts 302°
2026-04-30 08:25 42.75466 17.20124 30779 ft 393 kts 302°
2026-04-30 08:25 42.77095 17.17138 31079 ft 393 kts 302°
2026-04-30 08:25 42.78725 17.14152 31444 ft 392 kts 302°
2026-04-30 08:25 42.80327 17.11216 31838 ft 390 kts 302°
2026-04-30 08:26 42.81942 17.08254 32232 ft 388 kts 302°
2026-04-30 08:26 42.83546 17.05304 32623 ft 387 kts 302°
2026-04-30 08:26 42.85142 17.02366 33031 ft 384 kts 302°
2026-04-30 08:26 42.86730 16.99443 33446 ft 382 kts 302°
2026-04-30 08:27 42.88308 16.96536 33853 ft 381 kts 302°
2026-04-30 08:27 42.89881 16.93636 34228 ft 379 kts 302°
2026-04-30 08:27 42.91446 16.90743 34528 ft 379 kts 302°
2026-04-30 08:27 42.93012 16.87846 34778 ft 380 kts 303°
2026-04-30 08:28 42.94583 16.84932 35029 ft 381 kts 303°
2026-04-30 08:28 42.96160 16.82007 35310 ft 382 kts 303°
2026-04-30 08:28 42.97736 16.79087 35571 ft 383 kts 303°
2026-04-30 08:28 42.99320 16.76153 35840 ft 384 kts 303°
2026-04-30 08:29 43.00907 16.73211 36081 ft 385 kts 303°
2026-04-30 08:29 43.02493 16.70260 36304 ft 386 kts 303°
2026-04-30 08:29 43.04081 16.67294 36503 ft 388 kts 303°
2026-04-30 08:29 43.05679 16.64308 36710 ft 389 kts 304°
2026-04-30 08:30 43.07259 16.61357 36911 ft 390 kts 304°
2026-04-30 08:30 43.08866 16.58355 37113 ft 392 kts 304°
2026-04-30 08:30 43.10479 16.55341 37321 ft 393 kts 304°
2026-04-30 08:30 43.12215 16.52443 37521 ft 395 kts 309°
2026-04-30 08:31 43.14036 16.49617 37712 ft 396 kts 309°
2026-04-30 08:31 43.15862 16.46786 37909 ft 397 kts 309°
2026-04-30 08:31 43.17698 16.43941 38099 ft 398 kts 309°
2026-04-30 08:32 43.21367 16.38230 38148 ft 400 kts 309°
2026-04-30 08:32 43.25040 16.32497 38165 ft 401 kts 309°
2026-04-30 08:33 43.28723 16.26731 38159 ft 402 kts 309°
2026-04-30 08:33 43.32414 16.20943 38160 ft 403 kts 309°
2026-04-30 08:34 43.36106 16.15154 38165 ft 403 kts 309°
2026-04-30 08:34 43.39797 16.09357 38164 ft 403 kts 309°
2026-04-30 08:35 43.43463 16.03586 38166 ft 403 kts 309°
2026-04-30 08:35 43.47147 15.97759 38165 ft 403 kts 309°
2026-04-30 08:36 43.50830 15.91931 38183 ft 403 kts 309°
2026-04-30 08:36 43.54518 15.86088 38172 ft 404 kts 309°
2026-04-30 08:37 43.58177 15.80264 38176 ft 404 kts 309°
2026-04-30 08:37 43.61862 15.74389 38182 ft 404 kts 309°
2026-04-30 08:38 43.65552 15.68514 38185 ft 405 kts 309°
2026-04-30 08:38 43.69234 15.62634 38182 ft 405 kts 309°
2026-04-30 08:39 43.72912 15.56743 38188 ft 405 kts 309°
2026-04-30 08:39 43.76590 15.50838 38192 ft 405 kts 309°
2026-04-30 08:40 43.80240 15.44962 38212 ft 405 kts 309°
2026-04-30 08:40 43.83912 15.39040 38212 ft 405 kts 309°
2026-04-30 08:41 43.87583 15.33111 38225 ft 405 kts 309°
2026-04-30 08:41 43.91250 15.27180 38210 ft 405 kts 309°
2026-04-30 08:42 43.94913 15.21240 38224 ft 405 kts 309°
2026-04-30 08:42 43.98576 15.15293 38251 ft 405 kts 309°
2026-04-30 08:43 44.02213 15.09370 38240 ft 406 kts 309°
2026-04-30 08:43 44.05870 15.03399 38241 ft 406 kts 309°
2026-04-30 08:44 44.09534 14.97400 38246 ft 406 kts 309°
2026-04-30 08:44 44.13197 14.91395 38247 ft 406 kts 309°
2026-04-30 08:45 44.16856 14.85401 38251 ft 406 kts 309°
2026-04-30 08:45 44.20511 14.79390 38252 ft 406 kts 309°
2026-04-30 08:46 44.24141 14.73403 38271 ft 407 kts 309°
2026-04-30 08:46 44.27792 14.67368 38265 ft 407 kts 309°
2026-04-30 08:47 44.31434 14.61322 38269 ft 407 kts 309°
2026-04-30 08:47 44.35075 14.55259 38266 ft 407 kts 309°
2026-04-30 08:48 44.38722 14.49193 38268 ft 407 kts 309°
2026-04-30 08:48 44.42373 14.43129 38267 ft 407 kts 309°
2026-04-30 08:49 44.45995 14.37098 38259 ft 407 kts 309°
2026-04-30 08:49 44.49634 14.30987 38278 ft 408 kts 309°
2026-04-30 08:50 44.53278 14.24870 38275 ft 409 kts 309°
2026-04-30 08:50 44.56929 14.18740 38274 ft 409 kts 309°
2026-04-30 08:51 44.60554 14.12640 38271 ft 410 kts 309°
2026-04-30 08:51 44.64200 14.06479 38266 ft 410 kts 309°
2026-04-30 08:52 44.67854 14.00311 38274 ft 410 kts 309°
2026-04-30 08:52 44.71504 13.94130 38282 ft 410 kts 309°
2026-04-30 08:53 44.75140 13.87943 38295 ft 411 kts 309°
2026-04-30 08:53 44.78785 13.81731 38288 ft 412 kts 309°
2026-04-30 08:54 44.81813 13.76567 38268 ft 412 kts 309°
2026-04-30 08:54 44.85461 13.70323 38269 ft 412 kts 309°
2026-04-30 08:55 44.89102 13.64086 38276 ft 412 kts 309°
2026-04-30 08:55 44.92738 13.57839 38281 ft 412 kts 309°
2026-04-30 08:56 44.96374 13.51578 38293 ft 412 kts 309°
2026-04-30 08:56 44.99991 13.45339 38287 ft 414 kts 310°
2026-04-30 08:57 45.03645 13.39016 38284 ft 416 kts 309°
2026-04-30 08:57 45.07307 13.32665 38289 ft 417 kts 309°
2026-04-30 08:58 45.10972 13.26304 38299 ft 417 kts 309°
2026-04-30 08:58 45.14639 13.19921 38305 ft 418 kts 309°
2026-04-30 08:59 45.18291 13.13560 38301 ft 418 kts 310°
2026-04-30 08:59 45.21959 13.07157 38322 ft 418 kts 309°
2026-04-30 09:00 45.25616 13.00737 38326 ft 418 kts 310°
2026-04-30 09:00 45.28905 12.93895 38329 ft 419 kts 305°
2026-04-30 09:01 45.32092 12.86961 38345 ft 419 kts 305°
2026-04-30 09:01 45.35272 12.80028 38334 ft 418 kts 305°
2026-04-30 09:02 45.40009 12.69685 38343 ft 417 kts 305°
2026-04-30 09:02 45.43180 12.62750 38340 ft 417 kts 305°
2026-04-30 09:03 45.46342 12.55805 38343 ft 417 kts 305°
2026-04-30 09:03 45.49490 12.48872 38338 ft 417 kts 305°
2026-04-30 09:04 45.52637 12.41925 38334 ft 417 kts 305°
2026-04-30 09:04 45.55765 12.35016 38335 ft 417 kts 305°
2026-04-30 09:05 45.58900 12.28062 38336 ft 417 kts 305°
2026-04-30 09:05 45.62001 12.21149 38333 ft 416 kts 305°
2026-04-30 09:06 45.65127 12.14186 38312 ft 417 kts 305°
2026-04-30 09:06 45.68258 12.07206 38318 ft 417 kts 305°
2026-04-30 09:07 45.71382 12.00212 38333 ft 417 kts 305°
2026-04-30 09:07 45.74491 11.93210 38340 ft 417 kts 305°
2026-04-30 09:08 45.77582 11.86253 38343 ft 416 kts 305°
2026-04-30 09:08 45.80690 11.79242 38315 ft 416 kts 305°
2026-04-30 09:09 45.83789 11.72232 38315 ft 416 kts 305°
2026-04-30 09:09 45.86882 11.65220 38320 ft 416 kts 305°
2026-04-30 09:10 45.89961 11.58196 38312 ft 416 kts 305°
2026-04-30 09:10 45.93024 11.51209 38306 ft 416 kts 305°
2026-04-30 09:11 45.96107 11.44191 38289 ft 416 kts 305°
2026-04-30 09:11 45.99185 11.37153 38289 ft 416 kts 304°
2026-04-30 09:12 46.02254 11.30098 38271 ft 416 kts 304°
2026-04-30 09:12 46.05317 11.23026 38264 ft 416 kts 304°
2026-04-30 09:13 46.08384 11.15948 38239 ft 417 kts 304°
2026-04-30 09:13 46.11451 11.08863 38250 ft 417 kts 304°
2026-04-30 09:14 46.14520 11.01748 38253 ft 418 kts 304°
2026-04-30 09:14 46.17585 10.94615 38250 ft 418 kts 304°
2026-04-30 09:15 46.20643 10.87471 38259 ft 418 kts 304°
2026-04-30 09:15 46.23398 10.80055 38232 ft 420 kts 298°
2026-04-30 09:16 46.25894 10.72425 38249 ft 420 kts 298°
2026-04-30 09:16 46.28390 10.64791 38244 ft 419 kts 298°
2026-04-30 09:17 46.30876 10.57154 38248 ft 420 kts 298°
2026-04-30 09:17 46.33354 10.49496 38257 ft 420 kts 298°
2026-04-30 09:18 46.35805 10.41888 38239 ft 420 kts 298°
2026-04-30 09:18 46.38274 10.34217 38240 ft 421 kts 298°
2026-04-30 09:19 46.40751 10.26536 38259 ft 421 kts 298°
2026-04-30 09:19 46.43222 10.18837 38273 ft 421 kts 297°
2026-04-30 09:20 46.45684 10.11129 38283 ft 421 kts 297°
2026-04-30 09:20 46.48151 10.03402 38271 ft 422 kts 299°
2026-04-30 09:21 46.50887 9.95897 38279 ft 420 kts 302°
2026-04-30 09:21 46.53801 9.88535 38284 ft 421 kts 302°
2026-04-30 09:22 46.56690 9.81121 38269 ft 421 kts 301°
2026-04-30 09:22 46.59503 9.73699 38255 ft 422 kts 301°
2026-04-30 09:23 46.62317 9.66184 38257 ft 423 kts 301°
2026-04-30 09:23 46.65137 9.58657 38256 ft 424 kts 301°
2026-04-30 09:24 46.67939 9.51183 37824 ft 423 kts 301°
2026-04-30 09:24 46.69347 9.47419 37048 ft 425 kts 301°
2026-04-30 09:24 46.70767 9.43622 36203 ft 428 kts 301°
2026-04-30 09:25 46.72201 9.39790 35334 ft 433 kts 302°
2026-04-30 09:25 46.73648 9.35913 34430 ft 438 kts 302°
2026-04-30 09:25 46.75098 9.32014 33394 ft 444 kts 302°
2026-04-30 09:25 46.76578 9.28029 32441 ft 447 kts 302°
2026-04-30 09:26 46.78055 9.24051 31766 ft 445 kts 302°
2026-04-30 09:26 46.79521 9.20086 31113 ft 442 kts 302°
2026-04-30 09:26 46.80974 9.16143 30470 ft 439 kts 302°
2026-04-30 09:26 46.82419 9.12219 29719 ft 439 kts 302°
2026-04-30 09:27 46.83847 9.08332 29047 ft 438 kts 302°
2026-04-30 09:27 46.85277 9.04432 28457 ft 434 kts 302°
2026-04-30 09:27 46.86698 9.00559 27862 ft 430 kts 302°
2026-04-30 09:27 46.88108 8.96721 27271 ft 426 kts 302°
2026-04-30 09:28 46.89502 8.92923 26700 ft 422 kts 302°
2026-04-30 09:28 46.90886 8.89150 26156 ft 418 kts 302°
2026-04-30 09:28 46.92329 8.85488 25631 ft 411 kts 309°
2026-04-30 09:28 46.94106 8.82270 25121 ft 403 kts 319°
2026-04-30 09:29 46.96178 8.79576 24648 ft 394 kts 328°
2026-04-30 09:29 46.98464 8.77446 24158 ft 386 kts 337°
2026-04-30 09:29 47.00906 8.75905 23646 ft 379 kts 346°
2026-04-30 09:29 47.03432 8.74964 23088 ft 372 kts 354°
2026-04-30 09:30 47.05983 8.74520 22566 ft 367 kts 358°
2026-04-30 09:30 47.08508 8.74071 22076 ft 365 kts 355°
2026-04-30 09:30 47.10981 8.73487 21589 ft 363 kts 354°
2026-04-30 09:30 47.13455 8.72816 21106 ft 361 kts 353°
2026-04-30 09:31 47.15943 8.72105 20628 ft 358 kts 352°
2026-04-30 09:31 47.18349 8.71420 20175 ft 356 kts 352°
2026-04-30 09:31 47.20779 8.70744 19728 ft 353 kts 352°
2026-04-30 09:31 47.23188 8.70085 19260 ft 351 kts 353°
2026-04-30 09:32 47.25582 8.69429 18781 ft 350 kts 351°
2026-04-30 09:32 47.27920 8.68395 18306 ft 352 kts 341°
2026-04-30 09:32 47.30152 8.66918 17802 ft 351 kts 338°
2026-04-30 09:32 47.32361 8.65401 17336 ft 349 kts 338°
2026-04-30 09:33 47.34554 8.63893 16873 ft 347 kts 338°
2026-04-30 09:33 47.36739 8.62392 16416 ft 346 kts 337°
2026-04-30 09:33 47.38837 8.60657 15970 ft 346 kts 332°
2026-04-30 09:33 47.40900 8.58838 15543 ft 344 kts 332°
2026-04-30 09:34 47.42834 8.56759 15115 ft 345 kts 320°
2026-04-30 09:34 47.44434 8.54115 14700 ft 347 kts 308°
2026-04-30 09:34 47.45633 8.51018 14287 ft 348 kts 295°
2026-04-30 09:34 47.46373 8.47614 13844 ft 350 kts 283°
2026-04-30 09:35 47.46740 8.44068 13382 ft 348 kts 279°
2026-04-30 09:35 47.47079 8.40536 12926 ft 345 kts 279°
2026-04-30 09:35 47.47417 8.37027 12471 ft 344 kts 279°
2026-04-30 09:35 47.47753 8.33525 11976 ft 342 kts 279°
2026-04-30 09:36 47.48086 8.30043 11451 ft 343 kts 280°
2026-04-30 09:36 47.48737 8.26698 10984 ft 337 kts 300°
2026-04-30 09:36 47.50119 8.23964 10619 ft 328 kts 316°
2026-04-30 09:36 47.51667 8.21588 10501 ft 315 kts 318°
2026-04-30 09:37 47.53138 8.19323 10378 ft 303 kts 317°
2026-04-30 09:37 47.54721 8.17375 10162 ft 290 kts 335°
2026-04-30 09:37 47.56614 8.16596 9790 ft 279 kts
2026-04-30 09:37 47.58480 8.17155 9361 ft 272 kts 30°
2026-04-30 09:38 47.59969 8.18784 8725 ft 264 kts 45°
2026-04-30 09:38 47.61277 8.20685 7977 ft 263 kts 48°
2026-04-30 09:38 47.62550 8.22639 7348 ft 262 kts 53°
2026-04-30 09:38 47.63429 8.24885 7024 ft 240 kts 71°
2026-04-30 09:39 47.63815 8.27165 6787 ft 221 kts 84°
2026-04-30 09:39 47.63812 8.29427 6231 ft 223 kts 97°
2026-04-30 09:39 47.63399 8.31693 5676 ft 233 kts 111°
2026-04-30 09:39 47.62582 8.33734 5315 ft 227 kts 126°
2026-04-30 09:40 47.61880 8.34852 5122 ft 220 kts 132°
2026-04-30 09:40 47.60781 8.36359 4823 ft 210 kts 132°
2026-04-30 09:40 47.59745 8.37784 4562 ft 197 kts 132°
2026-04-30 09:40 47.58764 8.39134 4315 ft 187 kts 133°
2026-04-30 09:41 47.57520 8.40845 3959 ft 182 kts 133°
2026-04-30 09:41 47.56901 8.41694 3804 ft 176 kts 131°
2026-04-30 09:41 47.56025 8.42899 3593 ft 169 kts 132°
2026-04-30 09:41 47.55175 8.44058 3374 ft 164 kts 132°
2026-04-30 09:42 47.54359 8.45179 3134 ft 156 kts 131°
2026-04-30 09:42 47.53583 8.46240 2951 ft 148 kts 129°
2026-04-30 09:42 47.52842 8.47257 2740 ft 140 kts 130°
2026-04-30 09:42 47.52160 8.48191 2514 ft 135 kts 129°
2026-04-30 09:43 47.51481 8.49122 2310 ft 132 kts 128°
2026-04-30 09:43 47.50792 8.50076 2197 ft 138 kts 128°
2026-04-30 09:43 47.50088 8.51018 2029 ft 132 kts 130°
2026-04-30 09:43 47.49418 8.51949 1819 ft 135 kts 130°
2026-04-30 09:44 47.48731 8.52896 1594 ft 134 kts 130°
2026-04-30 09:44 47.48051 8.53824 1425 ft 134 kts 132°
2026-04-30 09:44 47.47438 8.54663 1392 ft 104 kts 137°
2026-04-30 09:44 47.46963 8.55310 1390 ft 83 kts 137°
2026-04-30 09:45 47.46647 8.55743 1395 ft 41 kts 137°
2026-04-30 09:45 47.46433 8.55937 1402 ft 35 kts 161°
2026-04-30 09:45 47.46265 8.55992 1412 ft 19 kts 167°
2026-04-30 09:45 47.46141 8.55996 1406 ft 17 kts 185°
2026-04-30 09:46 47.46032 8.55980 1407 ft 15 kts 186°
2026-04-30 09:46 47.45930 8.55949 1407 ft 14 kts 198°
2026-04-30 09:46 47.45849 8.55909 1412 ft 11 kts 198°
2026-04-30 09:46 47.45782 8.55881 1410 ft 11 kts 188°
2026-04-30 09:47 47.45692 8.55864 1410 ft 13 kts 187°
2026-04-30 09:47 47.45602 8.55850 1409 ft 12 kts 186°
2026-04-30 09:47 47.45520 8.55848 1414 ft 12 kts 157°
2026-04-30 09:47 47.45491 8.55940 1407 ft 9 kts 118°
2026-04-30 09:48 47.45431 8.55949 1407 ft 7 kts 188°
2026-04-30 09:48 47.45409 8.55945 1407 ft 0 kts 186°